Wind_Speed
6 6 1 4 4 4 6 3 2 3 4 5 4 4 7 1 7 11 22 26 28 30 29 29 21 14 15 14 15 16 17 14 15 15 14 17 20 19 21 25 26 29 32 30
6 1 3 3 6 7 5 2 3 4 5 6 2 7 5 5 0 7 16 23 27 28 29 30 27 21 18 15 16 17 17 16 16 17 17 21 20 19 25 27 29 30 30 28
4 4 1 6 5 6 1 4 1 3 4 6 4 7 7 3 4 5 13 20 22 26 27 26 28 24 20 16 17 18 16 17 18 21 21 23 20 24 26 30 30 29 28 26
2 4 6 5 3 4 1 2 2 3 4 2 3 2 4 5 5 3 5 12 16 19 20 22 25 24 20 18 18 18 19 21 22 25 23 21 24 26 29 31 30 28 25 27
1 4 5 6 1 3 2 3 3 3 4 4 8 5 5 3 3 5 7 11 13 15 17 18 20 21 20 19 21 19 24 22 24 24 20 24 24 26 30 30 31 28 27 29
2 1 2 4 2 3 2 4 7 4 4 4 5 3 3 4 6 3 7 11 12 12 16 18 17 18 18 20 24 22 21 24 19 19 22 23 24 27 31 31 29 29 31 30
6 4 4 2 4 6 7 7 4 6 6 3 5 3 7 5 4 6 10 11 13 13 15 14 14 14 14 15 18 21 20 17 18 21 22 22 26 30 29 28 29 31 31 31
4 4 1 2 2 5 4 5 5 1 1 5 5 0 5 2 3 6 10 11 12 13 11 11 10 11 11 11 16 20 17 16 19 20 21 26 28 26 25 26 28 30 33 27
4 2 3 4 2 3 2 4 4 6 2 2 3 5 6 0 2 2 9 12 13 9 10 10 10 10 12 16 18 16 16 20 20 21 24 27 24 25 25 27 29 32 18 21
7 3 2 2 1 10 3 5 4 3 1 3 4 4 5 5 8 7 12 17 12 12 13 12 11 13 14 16 15 17 18 18 20 23 25 23 24 24 26 28 25 23 21 23
4 4 4 1 4 1 2 2 6 4 4 5 1 5 7 9 10 11 17 11 11 14 13 12 13 12 15 16 16 16 17 19 21 23 22 23 24 25 28 24 22 20 23 27
1 5 3 1 2 3 2 3 4 5 4 1 3 7 4 7 14 17 12 11 12 9 9 10 11 12 14 15 15 16 17 18 21 22 23 25 26 27 26 21 18 21 25 26
5 3 3 7 6 4 5 3 5 5 3 4 4 6 3 7 2 7 12 14 12 10 11 9 6 8 9 11 14 15 16 18 20 22 24 26 27 28 21 17 21 22 27 21
5 3 6 6 5 3 2 1 2 5 3 3 6 7 7 4 2 7 11 14 10 10 8 7 6 9 11 13 16 17 16 18 21 22 24 27 29 23 16 17 21 25 23 17
4 4 3 2 1 2 1 2 1 4 5 5 5 4 7 7 9 16 9 6 8 11 12 6 8 12 15 16 17 16 16 18 21 22 25 29 26 17 16 19 21 25 18 17
4 2 2 1 1 2 1 2 4 3 0 5 3 5 7 4 6 3 5 9 15 14 12 10 13 16 18 20 17 17 16 19 20 23 28 28 20 15 17 20 25 20 18 14
3 5 3 3 2 2 4 3 3 3 4 3 3 5 6 4 2 3 5 12 15 12 13 16 20 22 23 21 19 16 17 19 21 26 28 23 16 15 19 23 22 19 16 11
4 4 3 2 3 1 5 2 4 4 4 3 3 4 2 1 3 6 7 11 12 11 15 20 25 28 27 23 18 17 17 19 23 27 24 17 13 18 20 23 20 17 13 10
4 4 3 4 3 4 4 4 5 4 6 2 1 3 3 4 5 8 10 12 14 17 21 23 27 30 27 23 20 15 16 20 25 25 19 13 15 19 23 19 20 15 12 7
6 6 4 3 4 6 7 2 4 5 5 2 2 1 1 0 2 5 15 12 9 16 16 20 22 23 23 23 18 15 16 20 25 21 15 14 18 22 18 20 17 10 7 3
2 3 3 2 3 6 6 5 6 4 7 3 2 2 3 2 3 6 10 12 13 15 19 18 20 21 23 21 16 14 16 23 22 17 13 16 20 16 18 17 12 10 6 3
4 4 3 3 1 6 6 5 6 5 6 4 1 2 3 3 4 8 12 14 16 19 21 23 25 25 20 17 13 13 18 22 19 13 14 17 15 17 19 14 12 10 7 6
1 6 4 7 6 4 7 3 4 3 3 4 3 3 3 4 8 10 13 17 21 24 25 25 25 24 20 13 11 13 19 19 15 12 15 16 13 18 16 15 13 11 8 9
2 5 3 2 2 6 8 8 4 4 5 7 4 3 2 4 7 11 15 20 23 26 28 26 25 23 16 10 9 15 17 16 12 14 15 10 12 14 16 15 14 12 11 8
5 8 4 3 5 2 2 7 10 9 7 4 2 1 3 6 10 12 16 21 26 29 27 25 24 20 10 6 10 14 16 12 11 13 10 10 9 11 13 14 14 14 12 7
7 6 4 5 9 5 5 9 9 6 4 4 2 1 4 7 8 11 15 20 25 28 25 25 22 14 5 6 10 12 14 9 11 10 7 10 9 10 11 10 11 11 10 9
Wind_Direction
15 51 332 228 198 116 96 83 90 310 0 77 38 76 342 329 151 168 205 210 216 220 213 217 223 262 273 258 239 233 231 237 249 266 294 311 315 309 314 316 318 320 322 325
15 284 279 135 105 97 66 41 343 298 11 88 20 39 77 41 11 209 212 217 226 234 227 224 233 254 265 262 245 238 245 249 261 283 296 307 302 306 315 317 316 318 322 321
156 240 97 113 90 90 74 135 226 224 19 46 41 7 359 62 90 222 228 229 236 239 242 239 234 252 261 265 247 248 252 261 273 281 290 298 299 303 309 309 311 317 318 316
206 317 121 105 86 105 15 262 268 267 70 184 42 230 327 345 355 331 225 227 233 237 242 243 242 248 260 267 257 255 260 266 270 278 289 289 298 304 309 310 316 318 314 314
302 54 68 75 319 158 199 45 32 60 93 87 352 80 269 4 334 275 253 234 233 237 239 242 245 252 258 262 262 266 262 267 273 283 282 293 299 307 307 312 314 312 309 309
56 69 66 136 76 52 123 83 43 51 67 41 310 108 287 182 210 243 253 236 228 224 233 240 243 252 256 256 252 270 268 268 277 277 292 300 304 306 309 310 305 304 308 309
8 351 327 129 75 19 52 53 3 11 13 232 334 46 233 265 257 222 227 219 205 211 227 240 245 254 260 262 261 260 268 270 276 288 296 301 303 307 310 304 305 310 311 314
123 339 28 2 161 156 55 115 138 216 263 274 320 321 277 262 254 254 240 221 210 224 231 239 244 250 259 262 261 266 266 277 287 294 296 299 307 313 309 305 311 313 316 321
136 260 320 43 91 128 149 58 160 104 14 39 286 301 327 28 255 229 219 221 225 219 222 234 242 249 249 263 265 263 270 280 287 292 300 309 315 315 310 316 316 317 324 325
197 100 63 312 77 42 104 147 57 18 138 282 299 277 241 246 234 244 242 230 226 215 227 234 237 242 253 259 260 267 277 287 296 304 310 316 320 316 319 319 317 328 325 317
123 102 283 17 21 195 21 32 51 112 122 172 238 266 219 225 217 211 224 219 213 218 229 237 236 246 251 259 269 280 288 297 305 312 319 324 324 323 321 318 321 316 315 317
93 123 109 205 315 268 100 95 111 107 275 126 158 271 259 256 255 222 218 210 215 218 229 232 239 250 257 274 275 284 295 308 315 320 323 327 326 323 323 318 316 313 315 320
180 38 58 354 354 357 64 56 106 105 86 208 138 269 324 339 337 210 207 211 229 238 231 218 223 265 278 283 280 290 297 311 319 321 325 327 324 324 320 320 317 315 320 317
105 102 145 186 201 175 114 12 102 125 125 206 229 283 306 306 250 204 213 221 225 227 217 202 268 282 281 278 278 283 298 311 317 321 323 323 323 322 321 323 320 318 321 322
93 110 135 161 126 129 200 319 10 210 217 177 268 229 278 254 220 220 214 212 224 223 211 241 282 288 284 278 277 286 299 311 315 319 322 323 325 322 317 315 317 322 321 321
7 143 114 125 57 9 269 324 291 228 301 261 273 269 217 300 254 246 245 246 233 228 227 275 298 288 290 280 277 282 298 311 316 322 324 325 327 321 315 316 324 325 328 326
77 129 95 238 334 34 349 227 244 270 226 213 238 262 339 355 346 256 241 235 246 253 259 287 299 294 293 286 280 289 305 312 319 323 325 326 327 319 317 324 327 327 332 332
119 95 76 168 22 194 242 247 232 238 269 251 274 321 22 26 300 309 292 257 264 274 289 302 307 303 296 287 283 292 304 317 324 323 328 330 322 319 325 332 335 343 346 342
73 112 91 138 189 287 291 208 182 175 276 195 247 334 30 14 349 308 324 284 283 300 320 318 312 308 305 292 289 290 307 320 324 329 336 332 324 328 332 337 339 338 349 346
68 69 115 139 169 211 239 184 150 110 298 253 188 270 261 172 30 284 358 358 346 333 345 348 350 345 324 299 289 296 313 325 333 338 340 332 333 333 337 342 344 345 342 24
37 28 159 134 224 289 245 174 143 90 239 184 218 218 211 182 226 350 4 8 358 339 334 340 342 343 331 301 289 297 321 333 340 343 341 339 338 344 346 346 359 358 12 87
183 157 206 101 145 273 180 120 167 209 175 166 187 63 74 52 20 5 8 3 355 348 345 341 336 332 312 287 282 305 330 341 346 347 347 344 351 358 351 7 16 20 34 97
233 183 190 174 217 284 226 290 200 149 153 169 139 107 75 11 2 7 7 354 346 341 339 338 336 326 303 288 294 323 338 349 354 355 347 351 10 1 11 29 28 35 45 83
246 169 170 75 275 268 267 235 221 179 168 152 148 121 346 359 8 8 354 346 343 342 339 333 330 319 304 288 308 326 346 354 2 355 355 15 13 22 34 40 41 56 76 70
192 141 162 252 272 252 214 192 173 155 165 179 150 8 352 358 357 353 347 340 341 337 338 334 327 320 299 297 320 335 354 1 0 2 17 26 28 36 47 51 49 52 66 75
183 175 160 218 217 200 158 167 178 180 163 140 160 275 334 339 337 340 335 332 339 341 340 334 328 327 304 312 326 346 360 3 4 5 35 30 42 47 52 62 54 66 62 67
Height
1530 1539 1545 1538 1536 1537 1543 1545 1546 1539 1537 1541 1549 1551 1547 1543 1544 1546 1547 1550 1552 1555 1559 1560 1562 1564 1564 1564 1565 1566 1566 1567 1567 1567 1566 1564 1562 1560 1559 1556 1552 1548 1543 1539
1539 1544 1534 1534 1536 1538 1543 1548 1550 1542 1538 1543 1549 1551 1550 1548 1548 1549 1550 1551 1553 1555 1558 1560 1562 1563 1563 1563 1563 1564 1565 1565 1565 1565 1563 1561 1559 1557 1555 1551 1547 1543 1539 1535
1541 1535 1532 1534 1539 1543 1546 1548 1546 1547 1544 1545 1549 1558 1553 1550 1551 1552 1552 1553 1555 1555 1557 1558 1560 1562 1561 1561 1561 1562 1563 1564 1564 1563 1561 1559 1556 1554 1551 1548 1544 1540 1535 1531
1536 1531 1532 1536 1540 1543 1550 1540 1541 1542 1553 1568 1555 1585 1560 1556 1554 1552 1551 1552 1553 1554 1555 1556 1557 1559 1559 1559 1560 1560 1561 1562 1562 1560 1558 1555 1552 1550 1547 1543 1538 1535 1531 1527
1539 1537 1539 1543 1542 1540 1545 1540 1545 1549 1559 1562 1567 1578 1569 1559 1558 1553 1551 1551 1552 1553 1553 1553 1554 1556 1557 1558 1557 1559 1559 1559 1558 1555 1554 1552 1549 1546 1543 1539 1535 1531 1528 1524
1536 1535 1535 1538 1540 1539 1540 1544 1555 1562 1568 1586 1572 1576 1576 1567 1557 1553 1551 1550 1551 1551 1551 1551 1553 1554 1555 1555 1555 1556 1556 1556 1554 1553 1551 1549 1546 1543 1539 1536 1531 1527 1523 1518
1542 1541 1537 1538 1542 1542 1545 1560 1591 1588 1599 1591 1573 1576 1570 1556 1553 1552 1550 1549 1549 1548 1547 1549 1551 1552 1552 1553 1553 1553 1552 1552 1552 1551 1549 1546 1543 1539 1534 1530 1525 1521 1517 1512
1562 1567 1542 1537 1541 1548 1555 1560 1590 1589 1603 1593 1573 1575 1567 1552 1551 1550 1550 1549 1547 1545 1548 1549 1550 1551 1551 1552 1551 1550 1550 1551 1549 1548 1546 1542 1538 1533 1528 1524 1519 1514 1509 1506
1559 1555 1539 1538 1539 1544 1553 1568 1563 1588 1594 1597 1586 1569 1555 1551 1550 1550 1549 1547 1544 1546 1547 1548 1549 1550 1551 1550 1550 1550 1550 1549 1547 1545 1541 1537 1533 1529 1525 1521 1516 1511 1504 1501
1543 1559 1544 1541 1542 1543 1544 1556 1573 1585 1591 1591 1589 1582 1574 1556 1552 1547 1545 1543 1544 1545 1546 1547 1548 1549 1550 1549 1549 1549 1548 1546 1544 1541 1537 1533 1529 1525 1520 1515 1510 1506 1503 1498
1539 1552 1554 1545 1551 1553 1556 1562 1574 1580 1589 1600 1601 1586 1551 1546 1543 1541 1541 1542 1543 1544 1546 1547 1547 1548 1549 1548 1548 1547 1546 1544 1541 1537 1533 1529 1524 1520 1516 1511 1507 1503 1499 1494
1540 1555 1566 1555 1549 1550 1550 1559 1569 1589 1586 1595 1598 1586 1543 1541 1538 1539 1542 1544 1544 1546 1546 1546 1547 1548 1547 1547 1545 1545 1543 1540 1536 1532 1529 1525 1520 1516 1511 1507 1504 1500 1495 1490
1537 1560 1581 1571 1561 1552 1556 1557 1568 1576 1584 1587 1597 1578 1542 1540 1539 1540 1541 1542 1544 1545 1545 1546 1547 1547 1546 1545 1543 1541 1538 1536 1533 1530 1526 1521 1517 1512 1507 1504 1501 1496 1491 1485
1535 1559 1566 1581 1566 1561 1560 1559 1562 1568 1586 1580 1579 1563 1547 1541 1541 1540 1539 1540 1543 1544 1545 1545 1546 1545 1544 1542 1540 1538 1537 1533 1530 1525 1522 1517 1513 1508 1504 1501 1497 1492 1487 1482
1537 1557 1556 1558 1555 1555 1557 1558 1559 1564 1564 1571 1561 1559 1547 1542 1538 1536 1539 1542 1543 1543 1544 1544 1543 1542 1541 1538 1536 1535 1532 1529 1526 1522 1518 1514 1508 1505 1501 1497 1493 1488 1483 1479
1543 1559 1554 1559 1556 1556 1558 1557 1557 1557 1556 1561 1555 1552 1541 1539 1540 1541 1542 1543 1541 1541 1543 1543 1541 1539 1536 1534 1532 1530 1529 1527 1523 1518 1514 1509 1504 1501 1498 1494 1489 1484 1479 1476
1548 1558 1565 1567 1562 1559 1570 1556 1555 1552 1551 1551 1556 1548 1542 1542 1543 1543 1542 1542 1542 1543 1542 1541 1539 1536 1532 1532 1531 1530 1527 1522 1519 1516 1511 1506 1502 1499 1495 1490 1485 1481 1477 1474
1549 1558 1567 1574 1568 1580 1558 1551 1551 1552 1549 1548 1547 1544 1544 1543 1543 1542 1542 1542 1542 1542 1541 1540 1537 1534 1531 1530 1528 1527 1523 1521 1517 1513 1507 1503 1500 1496 1492 1487 1482 1478 1474 1473
1543 1556 1573 1577 1582 1568 1552 1550 1551 1551 1551 1545 1546 1545 1545 1544 1543 1543 1544 1543 1543 1543 1541 1537 1533 1530 1527 1525 1524 1522 1520 1517 1513 1509 1504 1501 1497 1493 1489 1484 1480 1477 1474 1472
1548 1552 1562 1578 1577 1581 1556 1545 1545 1548 1564 1545 1544 1545 1545 1545 1551 1547 1545 1543 1543 1542 1538 1535 1531 1528 1524 1521 1520 1519 1518 1514 1510 1506 1503 1499 1496 1491 1486 1482 1478 1476 1473 1471
1559 1563 1566 1577 1573 1565 1545 1545 1546 1564 1563 1544 1545 1545 1544 1546 1547 1547 1545 1544 1542 1539 1536 1533 1530 1526 1522 1519 1518 1517 1515 1512 1508 1504 1501 1498 1495 1489 1486 1482 1478 1475 1472 1472
1557 1565 1569 1575 1572 1569 1542 1545 1552 1546 1542 1544 1544 1544 1544 1545 1546 1545 1544 1542 1539 1536 1533 1530 1526 1523 1519 1516 1516 1515 1512 1509 1506 1503 1500 1498 1493 1490 1486 1482 1479 1476 1475 1475
1559 1553 1560 1563 1559 1544 1543 1542 1542 1542 1543 1544 1544 1544 1545 1545 1544 1544 1542 1540 1537 1534 1531 1528 1524 1518 1515 1515 1515 1514 1511 1508 1505 1502 1500 1497 1494 1491 1487 1484 1481 1479 1478 1478
1545 1545 1550 1550 1545 1542 1541 1542 1542 1542 1542 1544 1544 1544 1545 1545 1544 1542 1540 1538 1535 1532 1528 1524 1519 1515 1513 1513 1514 1512 1510 1507 1504 1502 1500 1497 1496 1493 1489 1487 1485 1483 1483 1483
1540 1543 1547 1547 1542 1540 1539 1539 1541 1541 1542 1543 1544 1544 1545 1544 1543 1541 1539 1536 1533 1530 1526 1520 1516 1512 1512 1513 1513 1511 1509 1506 1505 1502 1500 1499 1497 1494 1492 1491 1490 1488 1487 1488
1536 1537 1544 1545 1535 1537 1538 1539 1540 1541 1542 1544 1545 1545 1544 1543 1542 1540 1538 1535 1532 1527 1523 1517 1513 1511 1512 1513 1512 1510 1508 1507 1505 1503 1502 1500 1498 1496 1495 1495 1494 1493 1493 1492